| time (UTC) | temp F | wind direction | speed MPH | gust MPH | rain 1hr in | rain 24hr in | rain mn in | humidity % | barometer mb |
| 20260507085033 | 46 | 285 | 12.0 | 21.0 | 0.01 | 0.18 | 0.01 | 43 | 1020.6 |
| 20260507084803 | 46 | 298 | 12.0 | 24.0 | 0.01 | 0.18 | 0.01 | 43 | 1020.6 |
| 20260507084032 | 46 | 299 | 11.0 | 24.0 | 0.01 | 0.18 | 0.01 | 43 | 1020.6 |
| 20260507083531 | 45 | 274 | 11.0 | 19.0 | 0.01 | 0.18 | 0.01 | 43 | 1020.6 |
| 20260507083031 | 45 | 271 | 10.0 | 18.0 | 0.01 | 0.18 | 0.01 | 43 | 1020.6 |
| 20260507082533 | 44 | 283 | 11.0 | 21.0 | 0.01 | 0.18 | 0.01 | 45 | 1020.6 |
| 20260507082032 | 44 | 278 | 11.0 | 21.0 | 0.01 | 0.18 | 0.01 | 45 | 1020.6 |
| 20260507081532 | 44 | 311 | 11.0 | 18.0 | 0.01 | 0.18 | 0.01 | 44 | 1020.6 |
| 20260507081032 | 44 | 273 | 10.0 | 19.0 | 0.01 | 0.18 | 0.01 | 45 | 1020.6 |
| 20260507080531 | 44 | 278 | 10.0 | 19.0 | 0.01 | 0.18 | 0.01 | 45 | 1020.6 |
| 20260507080302 | 44 | 291 | 10.0 | 19.0 | 0.00 | 0.17 | 0.00 | 43 | 1020.6 |
| 20260507080154 | 44 | 271 | 9.0 | 18.0 | 0.00 | 0.17 | 0.00 | 43 | 1020.6 |
| 20260507075033 | 44 | 273 | 8.0 | 17.0 | 0.00 | 0.17 | 0.00 | 45 | 1020.6 |
| 20260507074531 | 43 | 255 | 8.0 | 15.0 | 0.00 | 0.17 | 0.00 | 45 | 1020.6 |
| 20260507074033 | 43 | 285 | 8.0 | 17.0 | 0.00 | 0.17 | 0.00 | 44 | 1020.6 |
| 20260507073531 | 43 | 296 | 8.0 | 17.0 | 0.00 | 0.17 | 0.00 | 44 | 1020.6 |
| 20260507073034 | 44 | 282 | 6.0 | 14.0 | 0.00 | 0.17 | 0.00 | 42 | 1020.6 |
| 20260507072531 | 44 | 269 | 6.0 | 14.0 | 0.00 | 0.17 | 0.00 | 43 | 1020.6 |
| 20260507072032 | 44 | 304 | 5.0 | 14.0 | 0.00 | 0.17 | 0.00 | 40 | 1020.6 |
| 20260507071532 | 44 | 286 | 5.0 | 15.0 | 0.00 | 0.17 | 0.00 | 41 | 1020.6 |
| 20260507071033 | 44 | 314 | 4.0 | 15.0 | 0.00 | 0.17 | 0.00 | 42 | 1020.6 |
| 20260507070532 | 43 | 274 | 2.0 | 11.0 | 0.00 | 0.17 | 0.00 | 44 | 1020.6 |
| 20260507070030 | 42 | 340 | 1.0 | 7.0 | 0.00 | 0.17 | 0.00 | 46 | 1020.6 |
| 20260507065530 | 42 | 302 | 1.0 | 7.0 | 0.00 | 0.17 | 0.00 | 45 | 1020.6 |
| 20260507065031 | 42 | 302 | 1.0 | 7.0 | 0.00 | 0.17 | 0.00 | 48 | 1020.6 |
| 20260507064529 | 42 | 300 | 1.0 | 4.0 | 0.00 | 0.17 | 0.00 | 47 | 1020.6 |
| 20260507064030 | 43 | 297 | 2.0 | 6.0 | 0.00 | 0.17 | 0.00 | 46 | 1020.6 |
| 20260507063530 | 43 | 252 | 2.0 | 6.0 | 0.00 | 0.17 | 0.00 | 45 | 1020.6 |
| 20260507063301 | 42 | 280 | 1.0 | 5.0 | 0.00 | 0.17 | 0.00 | 48 | 1020.6 |
| 20260507062803 | 41 | 283 | 1.0 | 4.0 | 0.00 | 0.17 | 0.00 | 50 | 1020.6 |
| 20260507062029 | 42 | 268 | 1.0 | 3.0 | 0.00 | 0.17 | 0.00 | 49 | 1020.6 |
| 20260507061530 | 41 | 337 | 1.0 | 4.0 | 0.00 | 0.17 | 0.00 | 50 | 1020.6 |
| 20260507061030 | 40 | 42 | 1.0 | 4.0 | 0.00 | 0.17 | 0.00 | 53 | 1020.6 |
| 20260507060527 | 40 | 51 | 1.0 | 5.0 | 0.00 | 0.17 | 0.00 | 55 | 1020.6 |
| 20260507060026 | 39 | 114 | 1.0 | 5.0 | 0.00 | 0.17 | 0.00 | 57 | 1020.6 |
| 20260507055527 | 39 | 89 | 0.0 | 4.0 | 0.00 | 0.17 | 0.17 | 58 | 1020.6 |
| 20260507055026 | 39 | 129 | 0.0 | 4.0 | 0.00 | 0.17 | 0.17 | 61 | 1020.6 |
| 20260507054527 | 38 | 121 | 0.0 | 3.0 | 0.00 | 0.17 | 0.17 | 67 | 1020.6 |
| 20260507054025 | 38 | 255 | 0.0 | 2.0 | 0.00 | 0.17 | 0.17 | 70 | 1020.6 |
| 20260507053527 | 39 | 77 | 0.0 | 3.0 | 0.00 | 0.17 | 0.17 | 73 | 1020.6 |
| 20260507053023 | 38 | 94 | 0.0 | 3.0 | 0.00 | 0.17 | 0.17 | 79 | 1020.6 |
| 20260507052524 | 38 | 117 | 0.0 | 1.0 | 0.00 | 0.17 | 0.17 | 88 | 1020.6 |
| 20260507052023 | 37 | 119 | 0.0 | 3.0 | 0.00 | 0.17 | 0.17 | 95 | 1020.6 |
| 20260507051524 | 36 | 285 | 0.0 | 3.0 | 0.00 | 0.17 | 0.17 | 96 | 1020.6 |
| 20260507051022 | 36 | 283 | 0.0 | 3.0 | 0.00 | 0.17 | 0.17 | 97 | 1020.6 |
| 20260507050754 | 36 | 283 | 0.0 | 3.0 | 0.00 | 0.17 | 0.17 | 97 | 1020.6 |
| 20260507050639 | 36 | 148 | 0.0 | 3.0 | 0.00 | 0.17 | 0.17 | 97 | 1020.6 |
| 20260507045521 | 35 | 257 | 0.0 | 3.0 | 0.00 | 0.17 | 0.17 | 97 | 1020.6 |
| 20260507045021 | 34 | 151 | 0.0 | 1.0 | 0.00 | 0.17 | 0.17 | 97 | 1020.6 |
| 20260507044520 | 35 | 134 | 0.0 | 0.0 | 0.00 | 0.17 | 0.17 | 97 | 1020.6 |
| 20260507044024 | 34 | 157 | 0.0 | 0.0 | 0.00 | 0.17 | 0.17 | 97 | 1020.6 |
| 20260507043522 | 34 | 231 | 0.0 | 0.0 | 0.00 | 0.17 | 0.17 | 97 | 1020.6 |
| 20260507043020 | 33 | 233 | 0.0 | 0.0 | 0.00 | 0.17 | 0.17 | 96 | 1020.6 |
| 20260507042518 | 33 | 264 | 0.0 | 0.0 | 0.00 | 0.17 | 0.17 | 97 | 1020.6 |
| 20260507042020 | 33 | 264 | 0.0 | 0.0 | 0.00 | 0.17 | 0.17 | 97 | 1020.6 |
| 20260507041750 | 33 | 292 | 0.0 | 2.0 | 0.00 | 0.17 | 0.17 | 96 | 1020.6 |
| 20260507041021 | 33 | 292 | 0.0 | 2.0 | 0.00 | 0.17 | 0.17 | 96 | 1020.6 |
| 20260507040518 | 33 | 290 | 0.0 | 1.0 | 0.00 | 0.17 | 0.17 | 96 | 1020.6 |
| 20260507040253 | 33 | 304 | 0.0 | 1.0 | 0.00 | 0.17 | 0.17 | 96 | 1020.6 |
| 20260507035518 | 32 | 321 | 0.0 | 0.0 | 0.00 | 0.17 | 0.17 | 96 | 1020.6 |
| 20260507035016 | 32 | 321 | 0.0 | 0.0 | 0.00 | 0.17 | 0.17 | 96 | 1020.6 |
| 20260507034518 | 31 | 293 | 0.0 | 1.0 | 0.00 | 0.17 | 0.17 | 96 | 1020.6 |
| 20260507034251 | 32 | 295 | 0.0 | 1.0 | 0.00 | 0.17 | 0.17 | 96 | 1020.6 |
| 20260507033516 | 32 | 217 | 0.0 | 0.0 | 0.00 | 0.17 | 0.17 | 96 | 1020.6 |
| 20260507033015 | 32 | 217 | 0.0 | 0.0 | 0.00 | 0.17 | 0.17 | 96 | 1020.6 |
| 20260507032514 | 32 | 217 | 0.0 | 0.0 | 0.00 | 0.17 | 0.17 | 96 | 1020.6 |
| 20260507032013 | 32 | 217 | 0.0 | 0.0 | 0.00 | 0.17 | 0.17 | 96 | 1020.6 |
| 20260507031744 | 31 | 266 | 0.0 | 0.0 | 0.00 | 0.17 | 0.17 | 96 | 1020.6 |
| 20260507031245 | 32 | 140 | 0.0 | 0.0 | 0.00 | 0.17 | 0.17 | 96 | 1020.6 |
| 20260507030512 | 31 | 141 | 0.0 | 1.0 | 0.00 | 0.17 | 0.17 | 96 | 1020.6 |
| 20260507030010 | 31 | 131 | 0.0 | 1.0 | 0.00 | 0.17 | 0.17 | 96 | 1020.6 |
| 20260507025510 | 31 | 116 | 0.0 | 1.0 | 0.00 | 0.17 | 0.17 | 96 | 1020.6 |
| 20260507025009 | 31 | 247 | 0.0 | 0.0 | 0.00 | 0.17 | 0.17 | 96 | 1020.6 |
| 20260507024507 | 31 | 115 | 0.0 | 1.0 | 0.00 | 0.17 | 0.17 | 96 | 1020.6 |
| 20260507024007 | 31 | 103 | 0.0 | 1.0 | 0.00 | 0.17 | 0.17 | 96 | 1020.6 |
| 20260507023740 | 31 | 244 | 0.0 | 0.0 | 0.00 | 0.17 | 0.17 | 96 | 1020.6 |
| 20260507023009 | 31 | 240 | 0.0 | 0.0 | 0.00 | 0.17 | 0.17 | 96 | 1020.6 |
| 20260507022507 | 32 | 255 | 0.0 | 0.0 | 0.00 | 0.17 | 0.17 | 95 | 1020.6 |
| 20260507022006 | 32 | 195 | 0.0 | 0.0 | 0.00 | 0.17 | 0.17 | 95 | 1020.6 |
| 20260507021741 | 32 | 116 | 0.0 | 0.0 | 0.00 | 0.17 | 0.17 | 95 | 1020.6 |
| 20260507021007 | 32 | 120 | 0.0 | 1.0 | 0.00 | 0.17 | 0.17 | 95 | 1020.6 |
| 20260507020507 | 32 | 197 | 0.0 | 1.0 | 0.00 | 0.17 | 0.17 | 95 | 1020.6 |
| 20260507020009 | 33 | 251 | 0.0 | 1.0 | 0.00 | 0.17 | 0.17 | 95 | 1020.6 |
| 20260507015507 | 33 | 222 | 0.0 | 1.0 | 0.00 | 0.17 | 0.17 | 95 | 1020.6 |
| 20260507015006 | 33 | 93 | 0.0 | 1.0 | 0.00 | 0.17 | 0.17 | 94 | 1020.6 |
| 20260507014506 | 34 | 118 | 0.0 | 2.0 | 0.00 | 0.17 | 0.17 | 94 | 1020.6 |
| 20260507014009 | 34 | 238 | 0.0 | 2.0 | 0.00 | 0.17 | 0.17 | 94 | 1020.6 |
| 20260507013507 | 35 | 108 | 0.0 | 2.0 | 0.00 | 0.17 | 0.17 | 94 | 1020.6 |
| 20260507013006 | 36 | 95 | 0.0 | 2.0 | 0.00 | 0.17 | 0.17 | 94 | 1020.6 |
| 20260507012506 | 36 | 82 | 0.0 | 1.0 | 0.00 | 0.17 | 0.17 | 94 | 1020.6 |
| 20260507012008 | 36 | 115 | 0.0 | 2.0 | 0.00 | 0.17 | 0.17 | 94 | 1020.6 |
| 20260507011507 | 36 | 186 | 0.0 | 2.0 | 0.00 | 0.17 | 0.17 | 94 | 1020.6 |
| 20260507011008 | 36 | 90 | 0.0 | 2.0 | 0.00 | 0.17 | 0.17 | 94 | 1020.6 |
| 20260507010738 | 37 | 79 | 0.0 | 2.0 | 0.00 | 0.17 | 0.17 | 94 | 1020.6 |
| 20260507010237 | 37 | 90 | 0.0 | 2.0 | 0.00 | 0.17 | 0.17 | 94 | 1020.6 |
| 20260507005506 | 37 | 102 | 0.0 | 2.0 | 0.00 | 0.17 | 0.17 | 94 | 1020.6 |
| 20260507005004 | 37 | 120 | 0.0 | 1.0 | 0.00 | 0.17 | 0.17 | 94 | 1020.6 |
| 20260507004510 | 37 | 125 | 0.0 | 1.0 | 0.00 | 0.17 | 0.17 | 94 | 1020.6 |
| 20260507004505 | 37 | 96 | 0.0 | 1.0 | 0.00 | 0.17 | 0.17 | 94 | 1020.6 |
| 20260507003501 | 37 | 75 | 0.0 | 1.0 | 0.00 | 0.17 | 0.17 | 94 | 1020.6 |
| 20260507002959 | 37 | 224 | 0.0 | 1.0 | 0.00 | 0.17 | 0.17 | 94 | 1020.6 |
| 20260507002728 | 37 | 80 | 0.0 | 1.0 | 0.00 | 0.17 | 0.17 | 94 | 1020.6 |
| 20260507002227 | 37 | 97 | 0.0 | 2.0 | 0.00 | 0.17 | 0.17 | 94 | 1020.6 |
| 20260507001456 | 37 | 100 | 0.0 | 2.0 | 0.00 | 0.17 | 0.17 | 94 | 1020.6 |
| 20260507000956 | 37 | 81 | 0.0 | 2.0 | 0.00 | 0.17 | 0.17 | 94 | 1020.6 |
| 20260507000457 | 37 | 134 | 0.0 | 3.0 | 0.00 | 0.17 | 0.17 | 94 | 1020.6 |
| 20260506235957 | 37 | 124 | 0.0 | 3.0 | 0.00 | 0.17 | 0.17 | 94 | 1020.6 |
| 20260506235459 | 37 | 181 | 0.0 | 1.0 | 0.00 | 0.17 | 0.17 | 94 | 1020.6 |
| 20260506234957 | 37 | 92 | 0.0 | 2.0 | 0.00 | 0.17 | 0.17 | 94 | 1020.6 |
| 20260506234455 | 37 | 106 | 0.0 | 2.0 | 0.00 | 0.17 | 0.17 | 94 | 1020.6 |
| 20260506233955 | 37 | 85 | 0.0 | 2.0 | 0.00 | 0.17 | 0.17 | 94 | 1020.6 |
| 20260506233455 | 36 | 93 | 0.0 | 3.0 | 0.00 | 0.17 | 0.17 | 94 | 1020.6 |
| 20260506232956 | 36 | 93 | 0.0 | 3.0 | 0.00 | 0.17 | 0.17 | 94 | 1020.6 |
| 20260506232454 | 36 | 129 | 0.0 | 2.0 | 0.00 | 0.17 | 0.17 | 94 | 1020.6 |
| 20260506231955 | 36 | 220 | 0.0 | 3.0 | 0.00 | 0.17 | 0.17 | 94 | 1020.6 |
| 20260506231456 | 35 | 158 | 0.0 | 3.0 | 0.00 | 0.17 | 0.17 | 94 | 1020.6 |
| 20260506230956 | 36 | 69 | 0.0 | 2.0 | 0.00 | 0.17 | 0.17 | 94 | 1020.6 |
| 20260506230453 | 35 | 77 | 0.0 | 2.0 | 0.00 | 0.17 | 0.17 | 94 | 1020.6 |
| 20260506230224 | 36 | 96 | 0.0 | 2.0 | 0.00 | 0.17 | 0.17 | 94 | 1020.6 |
| 20260506225454 | 36 | 85 | 0.0 | 3.0 | 0.00 | 0.17 | 0.17 | 94 | 1020.6 |
| 20260506224951 | 36 | 120 | 0.0 | 3.0 | 0.00 | 0.17 | 0.17 | 93 | 1020.6 |
| 20260506224454 | 36 | 247 | 0.0 | 1.0 | 0.00 | 0.17 | 0.17 | 93 | 1020.6 |
| 20260506224224 | 36 | 248 | 0.0 | 1.0 | 0.00 | 0.17 | 0.17 | 93 | 1020.6 |
| 20260506223725 | 36 | 73 | 1.0 | 4.0 | 0.00 | 0.17 | 0.17 | 93 | 1020.6 |
| 20260506222953 | 36 | 120 | 1.0 | 4.0 | 0.00 | 0.17 | 0.17 | 93 | 1020.6 |
| 20260506222450 | 37 | 91 | 0.0 | 3.0 | 0.00 | 0.17 | 0.17 | 94 | 1020.6 |
| 20260506221951 | 36 | 63 | 0.0 | 2.0 | 0.00 | 0.17 | 0.17 | 93 | 1020.6 |
| 20260506221450 | 36 | 70 | 0.0 | 2.0 | 0.00 | 0.17 | 0.17 | 93 | 1020.6 |
| 20260506220950 | 36 | 99 | 0.0 | 2.0 | 0.00 | 0.17 | 0.17 | 93 | 1020.6 |
| 20260506220451 | 36 | 246 | 1.0 | 3.0 | 0.00 | 0.17 | 0.17 | 94 | 1020.6 |
| 20260506215948 | 35 | 85 | 1.0 | 4.0 | 0.00 | 0.17 | 0.17 | 93 | 1020.6 |
| 20260506215448 | 35 | 84 | 1.0 | 4.0 | 0.00 | 0.17 | 0.17 | 93 | 1020.6 |
| 20260506214949 | 35 | 81 | 0.0 | 3.0 | 0.00 | 0.17 | 0.17 | 93 | 1020.6 |
| 20260506214449 | 35 | 276 | 0.0 | 2.0 | 0.01 | 0.17 | 0.17 | 92 | 1020.6 |
| 20260506213949 | 35 | 107 | 0.0 | 1.0 | 0.01 | 0.17 | 0.17 | 92 | 1020.6 |
| 20260506213450 | 35 | 89 | 0.0 | 1.0 | 0.01 | 0.17 | 0.17 | 93 | 1020.6 |
| 20260506212949 | 35 | 84 | 0.0 | 3.0 | 0.02 | 0.17 | 0.17 | 92 | 1020.6 |
| 20260506212449 | 35 | 84 | 0.0 | 3.0 | 0.03 | 0.18 | 0.17 | 93 | 1020.6 |
| 20260506211950 | 35 | 104 | 0.0 | 3.0 | 0.04 | 0.18 | 0.17 | 92 | 1020.6 |
| 20260506211447 | 35 | 137 | 1.0 | 3.0 | 0.05 | 0.18 | 0.17 | 93 | 1020.6 |
| 20260506210948 | 35 | 89 | 1.0 | 3.0 | 0.06 | 0.18 | 0.17 | 92 | 1020.6 |
| 20260506210453 | 35 | 101 | 0.0 | 2.0 | 0.07 | 0.18 | 0.17 | 91 | 1020.6 |
| 20260506210447 | 35 | 72 | 1.0 | 3.0 | 0.06 | 0.18 | 0.17 | 91 | 1020.6 |
| 20260506205446 | 36 | 86 | 0.0 | 3.0 | 0.08 | 0.18 | 0.17 | 92 | 1020.6 |
| 20260506204947 | 36 | 165 | 1.0 | 3.0 | 0.09 | 0.19 | 0.17 | 91 | 1020.6 |
| 20260506204717 | 36 | 87 | 0.0 | 2.0 | 0.09 | 0.18 | 0.16 | 91 | 1020.6 |
| 20260506203947 | 36 | 124 | 0.0 | 2.0 | 0.10 | 0.18 | 0.16 | 92 | 1020.6 |
| 20260506203717 | 36 | 105 | 0.0 | 2.0 | 0.11 | 0.18 | 0.16 | 91 | 1020.6 |
| 20260506202949 | 36 | 103 | 1.0 | 3.0 | 0.11 | 0.17 | 0.15 | 92 | 1020.6 |
| 20260506202446 | 35 | 305 | 1.0 | 3.0 | 0.12 | 0.17 | 0.14 | 90 | 1020.6 |
| 20260506202216 | 36 | 289 | 0.0 | 2.0 | 0.12 | 0.16 | 0.13 | 92 | 1020.6 |
| 20260506201445 | 35 | 294 | 0.0 | 0.0 | 0.12 | 0.16 | 0.12 | 93 | 1020.6 |
| 20260506200943 | 35 | 321 | 0.0 | 0.0 | 0.11 | 0.16 | 0.11 | 92 | 1020.6 |
| 20260506200444 | 35 | 354 | 0.0 | 0.0 | 0.11 | 0.16 | 0.11 | 93 | 1020.6 |
| 20260506195947 | 34 | 354 | 0.0 | 0.0 | 0.10 | 0.15 | 0.10 | 93 | 1020.6 |
| 20260506195444 | 34 | 83 | 0.0 | 0.0 | 0.09 | 0.14 | 0.09 | 93 | 1020.6 |
| 20260506194950 | 33 | 83 | 0.0 | 0.0 | 0.07 | 0.12 | 0.07 | 94 | 1020.6 |
| 20260506194944 | 34 | 83 | 0.0 | 0.0 | 0.08 | 0.13 | 0.08 | 93 | 1020.6 |
| 20260506193946 | 33 | 83 | 0.0 | 0.0 | 0.06 | 0.11 | 0.06 | 94 | 1020.6 |
| 20260506193444 | 32 | 83 | 0.0 | 0.0 | 0.05 | 0.10 | 0.05 | 94 | 1020.6 |
| 20260506192943 | 32 | 89 | 0.0 | 0.0 | 0.04 | 0.09 | 0.04 | 93 | 1020.6 |
| 20260506192444 | 31 | 86 | 1.0 | 3.0 | 0.02 | 0.07 | 0.03 | 93 | 1020.6 |
| 20260506191947 | 31 | 76 | 2.0 | 4.0 | 0.00 | 0.05 | 0.00 | 94 | 1020.6 |
| 20260506191942 | 31 | 81 | 1.0 | 3.0 | 0.01 | 0.06 | 0.01 | 94 | 1020.6 |
| 20260506190944 | 31 | 82 | 2.0 | 4.0 | 0.00 | 0.05 | 0.00 | 93 | 1020.6 |
| 20260506190443 | 31 | 94 | 2.0 | 4.0 | 0.00 | 0.05 | 0.00 | 94 | 1020.6 |
| 20260506185943 | 31 | 89 | 2.0 | 5.0 | 0.00 | 0.05 | 0.00 | 94 | 1020.6 |
| 20260506185441 | 30 | 86 | 2.0 | 6.0 | 0.00 | 0.05 | 0.00 | 94 | 1020.6 |
| 20260506184941 | 31 | 76 | 1.0 | 6.0 | 0.00 | 0.05 | 0.00 | 94 | 1020.6 |
| 20260506184441 | 31 | 79 | 1.0 | 4.0 | 0.00 | 0.05 | 0.00 | 95 | 1020.6 |
| 20260506183938 | 31 | 66 | 2.0 | 5.0 | 0.00 | 0.06 | 0.00 | 94 | 1020.6 |
| 20260506183440 | 31 | 83 | 1.0 | 5.0 | 0.00 | 0.06 | 0.00 | 94 | 1020.6 |
| 20260506182946 | 30 | 98 | 2.0 | 5.0 | 0.00 | 0.06 | 0.00 | 94 | 1020.6 |
| 20260506182941 | 30 | 82 | 2.0 | 4.0 | 0.00 | 0.06 | 0.00 | 94 | 1020.6 |
| 20260506181935 | 30 | 72 | 3.0 | 5.0 | 0.00 | 0.06 | 0.00 | 94 | 1020.6 |
| 20260506181707 | 30 | 79 | 3.0 | 9.0 | 0.00 | 0.06 | 0.00 | 94 | 1020.6 |
| 20260506180937 | 31 | 77 | 4.0 | 9.0 | 0.00 | 0.06 | 0.00 | 95 | 1020.6 |
| 20260506180709 | 31 | 72 | 4.0 | 8.0 | 0.00 | 0.06 | 0.00 | 95 | 1020.6 |
| 20260506175933 | 32 | 42 | 5.0 | 9.0 | 0.00 | 0.06 | 0.00 | 95 | 1020.6 |
| 20260506175435 | 31 | 2 | 4.0 | 9.0 | 0.00 | 0.06 | 0.00 | 95 | 1020.6 |
| 20260506174933 | 31 | 41 | 5.0 | 10.0 | 0.00 | 0.07 | 0.00 | 95 | 1020.6 |
| 20260506174432 | 32 | 56 | 5.0 | 10.0 | 0.00 | 0.07 | 0.00 | 95 | 1020.6 |
| 20260506173933 | 32 | 44 | 5.0 | 10.0 | 0.00 | 0.07 | 0.00 | 95 | 1020.6 |
| 20260506173432 | 31 | 352 | 6.0 | 10.0 | 0.00 | 0.07 | 0.00 | 95 | 1020.6 |
| 20260506172937 | 31 | 325 | 7.0 | 14.0 | 0.00 | 0.07 | 0.00 | 95 | 1020.6 |
| 20260506172932 | 31 | 342 | 7.0 | 11.0 | 0.00 | 0.07 | 0.00 | 95 | 1020.6 |
| 20260506171932 | 31 | 21 | 7.0 | 14.0 | 0.00 | 0.07 | 0.00 | 95 | 1020.6 |
| 20260506171432 | 31 | 328 | 6.0 | 10.0 | 0.00 | 0.07 | 0.00 | 95 | 1020.6 |
| 20260506170931 | 30 | 319 | 6.0 | 9.0 | 0.00 | 0.07 | 0.00 | 95 | 1020.6 |
| 20260506170701 | 30 | 6 | 6.0 | 10.0 | 0.00 | 0.07 | 0.00 | 95 | 1020.6 |
| 20260506165931 | 30 | 340 | 5.0 | 10.0 | 0.00 | 0.07 | 0.00 | 95 | 1020.6 |
| 20260506165431 | 30 | 333 | 5.0 | 10.0 | 0.00 | 0.07 | 0.00 | 95 | 1020.6 |
| 20260506164929 | 30 | 29 | 7.0 | 12.0 | 0.00 | 0.07 | 0.00 | 95 | 1020.6 |
| 20260506164429 | 30 | 8 | 8.0 | 13.0 | 0.00 | 0.07 | 0.00 | 95 | 1020.6 |
| 20260506163930 | 30 | 354 | 8.0 | 13.0 | 0.00 | 0.07 | 0.00 | 95 | 1020.6 |
| 20260506163431 | 30 | 10 | 7.0 | 13.0 | 0.00 | 0.07 | 0.00 | 95 | 1020.6 |
| 20260506162929 | 30 | 289 | 7.0 | 13.0 | 0.00 | 0.07 | 0.00 | 95 | 1020.6 |
| 20260506162431 | 30 | 323 | 7.0 | 11.0 | 0.00 | 0.08 | 0.00 | 95 | 1020.6 |
| 20260506161929 | 30 | 18 | 7.0 | 12.0 | 0.00 | 0.08 | 0.00 | 95 | 1020.6 |
| 20260506161431 | 30 | 23 | 7.0 | 12.0 | 0.00 | 0.08 | 0.00 | 95 | 1020.6 |
| 20260506160929 | 30 | 41 | 6.0 | 10.0 | 0.00 | 0.08 | 0.00 | 95 | 1020.6 |
| 20260506160431 | 30 | 354 | 6.0 | 10.0 | 0.00 | 0.08 | 0.00 | 95 | 1020.6 |
| 20260506155930 | 30 | 0 | 5.0 | 10.0 | 0.00 | 0.08 | 0.00 | 95 | 1020.6 |
| 20260506155431 | 30 | 321 | 5.0 | 10.0 | 0.00 | 0.08 | 0.00 | 95 | 1020.6 |
| 20260506155201 | 29 | 1 | 5.0 | 10.0 | 0.00 | 0.08 | 0.00 | 95 | 1020.6 |
| 20260506154428 | 29 | 18 | 5.0 | 9.0 | 0.00 | 0.08 | 0.00 | 95 | 1020.6 |
| 20260506153929 | 29 | 28 | 6.0 | 10.0 | 0.00 | 0.08 | 0.00 | 95 | 1020.6 |
| 20260506153431 | 29 | 342 | 6.0 | 10.0 | 0.00 | 0.08 | 0.00 | 95 | 1020.6 |
| 20260506152928 | 29 | 43 | 6.0 | 10.0 | 0.00 | 0.08 | 0.00 | 95 | 1020.6 |
| 20260506152428 | 30 | 334 | 5.0 | 10.0 | 0.00 | 0.08 | 0.00 | 96 | 1020.6 |
| 20260506151929 | 30 | 11 | 4.0 | 9.0 | 0.00 | 0.08 | 0.00 | 96 | 1020.6 |
| 20260506151432 | 30 | 10 | 4.0 | 7.0 | 0.00 | 0.08 | 0.00 | 96 | 1020.6 |
| 20260506150929 | 29 | 359 | 4.0 | 7.0 | 0.00 | 0.09 | 0.00 | 95 | 1020.6 |
| 20260506150428 | 29 | 331 | 4.0 | 7.0 | 0.00 | 0.09 | 0.00 | 95 | 1020.6 |
| 20260506145928 | 29 | 330 | 3.0 | 7.0 | 0.00 | 0.09 | 0.00 | 96 | 1020.6 |
| 20260506145431 | 29 | 30 | 3.0 | 6.0 | 0.00 | 0.09 | 0.00 | 96 | 1020.6 |
| 20260506144930 | 29 | 350 | 4.0 | 6.0 | 0.00 | 0.09 | 0.00 | 96 | 1020.6 |
| 20260506144428 | 29 | 350 | 4.0 | 7.0 | 0.00 | 0.10 | 0.00 | 96 | 1020.6 |
| 20260506144159 | 29 | 346 | 4.0 | 7.0 | 0.00 | 0.10 | 0.00 | 96 | 1020.6 |
| 20260506143701 | 29 | 349 | 3.0 | 6.0 | 0.00 | 0.10 | 0.00 | 96 | 1020.6 |
| 20260506142927 | 29 | 11 | 3.0 | 5.0 | 0.00 | 0.10 | 0.00 | 96 | 1020.6 |
| 20260506142428 | 29 | 351 | 3.0 | 6.0 | 0.00 | 0.10 | 0.00 | 96 | 1020.6 |
| 20260506141930 | 29 | 342 | 4.0 | 6.0 | 0.00 | 0.10 | 0.00 | 96 | 1020.6 |
| 20260506141700 | 29 | 353 | 4.0 | 7.0 | 0.00 | 0.11 | 0.00 | 96 | 1020.6 |
| 20260506140928 | 29 | 351 | 4.0 | 7.0 | 0.00 | 0.11 | 0.00 | 96 | 1020.6 |
| 20260506140429 | 29 | 340 | 4.0 | 6.0 | 0.00 | 0.11 | 0.00 | 96 | 1020.6 |
| 20260506135928 | 29 | 359 | 3.0 | 6.0 | 0.00 | 0.11 | 0.00 | 96 | 1020.6 |
| 20260506135659 | 29 | 356 | 2.0 | 6.0 | 0.00 | 0.11 | 0.00 | 96 | 1020.6 |
| 20260506134929 | 30 | 326 | 0.0 | 6.0 | 0.00 | 0.11 | 0.00 | 96 | 1020.6 |
| 20260506134428 | 30 | 22 | 0.0 | 0.0 | 0.00 | 0.11 | 0.00 | 96 | 1020.6 |
| 20260506133929 | 30 | 340 | 0.0 | 0.0 | 0.00 | 0.11 | 0.00 | 96 | 1020.6 |
| 20260506133428 | 30 | 341 | 0.0 | 0.0 | 0.00 | 0.11 | 0.00 | 96 | 1020.6 |
| 20260506132930 | 30 | 352 | 0.0 | 0.0 | 0.00 | 0.11 | 0.00 | 96 | 1020.6 |
| 20260506132659 | 29 | 323 | 0.0 | 0.0 | 0.00 | 0.11 | 0.00 | 96 | 1020.6 |
| 20260506131928 | 29 | 322 | 0.0 | 0.0 | 0.00 | 0.11 | 0.00 | 96 | 1020.6 |
| 20260506131429 | 29 | 322 | 0.0 | 0.0 | 0.00 | 0.11 | 0.00 | 96 | 1020.6 |
| 20260506130928 | 29 | 4 | 0.0 | 0.0 | 0.00 | 0.11 | 0.00 | 96 | 1020.6 |
| 20260506130427 | 29 | 4 | 0.0 | 0.0 | 0.00 | 0.11 | 0.00 | 96 | 1020.6 |
| 20260506125929 | 29 | 4 | 0.0 | 0.0 | 0.00 | 0.11 | 0.00 | 96 | 1020.6 |
| 20260506125700 | 29 | 20 | 0.0 | 0.0 | 0.00 | 0.11 | 0.00 | 96 | 1020.6 |
| 20260506124926 | 29 | 12 | 0.0 | 0.0 | 0.00 | 0.11 | 0.00 | 96 | 1020.6 |
| 20260506124427 | 29 | 27 | 0.0 | 0.0 | 0.00 | 0.11 | 0.00 | 96 | 1020.6 |
| 20260506123926 | 29 | 13 | 0.0 | 0.0 | 0.00 | 0.11 | 0.00 | 96 | 1020.6 |
| 20260506123422 | 29 | 20 | 0.0 | 0.0 | 0.00 | 0.11 | 0.00 | 96 | 1020.6 |
| 20260506122923 | 29 | 39 | 0.0 | 0.0 | 0.00 | 0.11 | 0.00 | 96 | 1020.6 |
| 20260506122422 | 28 | 38 | 0.0 | 0.0 | 0.00 | 0.11 | 0.00 | 96 | 1020.6 |
| 20260506121921 | 28 | 0 | 0.0 | 0.0 | 0.00 | 0.11 | 0.00 | 96 | 1020.6 |
| 20260506121424 | 28 | 13 | 0.0 | 0.0 | 0.00 | 0.11 | 0.00 | 96 | 1020.6 |
| 20260506120923 | 28 | 26 | 0.0 | 0.0 | 0.00 | 0.11 | 0.00 | 96 | 1020.6 |
| 20260506120422 | 28 | 18 | 0.0 | 0.0 | 0.00 | 0.11 | 0.00 | 96 | 1020.6 |
| 20260506115921 | 28 | 24 | 0.0 | 0.0 | 0.00 | 0.11 | 0.00 | 96 | 1020.6 |
| 20260506115424 | 28 | 30 | 0.0 | 0.0 | 0.00 | 0.11 | 0.00 | 96 | 1020.6 |
| 20260506114922 | 28 | 14 | 0.0 | 0.0 | 0.00 | 0.11 | 0.00 | 96 | 1020.6 |
| 20260506114422 | 28 | 11 | 0.0 | 0.0 | 0.00 | 0.11 | 0.00 | 96 | 1020.6 |
| 20260506113921 | 28 | 39 | 0.0 | 0.0 | 0.00 | 0.11 | 0.00 | 96 | 1020.6 |
| 20260506113422 | 28 | 18 | 0.0 | 0.0 | 0.00 | 0.11 | 0.00 | 96 | 1020.6 |
| 20260506112920 | 28 | 18 | 0.0 | 0.0 | 0.00 | 0.11 | 0.00 | 96 | 1020.6 |
| 20260506112419 | 28 | 20 | 0.0 | 0.0 | 0.00 | 0.11 | 0.00 | 96 | 1020.6 |
| 20260506111921 | 28 | 341 | 0.0 | 0.0 | 0.00 | 0.11 | 0.00 | 96 | 1020.6 |
| 20260506111421 | 28 | 23 | 0.0 | 0.0 | 0.00 | 0.11 | 0.00 | 96 | 1020.6 |
| 20260506110924 | 28 | 349 | 0.0 | 0.0 | 0.00 | 0.12 | 0.00 | 96 | 1020.6 |
| 20260506110920 | 28 | 14 | 0.0 | 0.0 | 0.00 | 0.12 | 0.00 | 96 | 1020.6 |
| 20260506105921 | 28 | 34 | 0.0 | 0.0 | 0.00 | 0.13 | 0.00 | 96 | 1020.6 |
| 20260506105651 | 28 | 8 | 0.0 | 0.0 | 0.00 | 0.13 | 0.00 | 96 | 1020.6 |
| 20260506104919 | 28 | 8 | 0.0 | 0.0 | 0.00 | 0.13 | 0.00 | 96 | 1020.6 |
| 20260506104420 | 28 | 8 | 0.0 | 0.0 | 0.00 | 0.13 | 0.00 | 96 | 1020.6 |
| 20260506103917 | 28 | 349 | 0.0 | 0.0 | 0.00 | 0.13 | 0.00 | 96 | 1020.6 |
| 20260506103417 | 28 | 21 | 0.0 | 0.0 | 0.00 | 0.14 | 0.00 | 96 | 1020.6 |
| 20260506102915 | 28 | 344 | 0.0 | 1.0 | 0.00 | 0.14 | 0.00 | 96 | 1020.6 |
| 20260506102422 | 28 | 31 | 0.0 | 2.0 | 0.00 | 0.14 | 0.00 | 96 | 1020.6 |
| 20260506102418 | 28 | 1 | 0.0 | 1.0 | 0.00 | 0.14 | 0.00 | 96 | 1020.6 |
| 20260506101413 | 28 | 23 | 0.0 | 2.0 | 0.00 | 0.14 | 0.00 | 96 | 1020.6 |
| 20260506100915 | 28 | 325 | 0.0 | 2.0 | 0.00 | 0.14 | 0.00 | 96 | 1020.6 |
| 20260506100416 | 28 | 349 | 1.0 | 3.0 | 0.00 | 0.14 | 0.00 | 96 | 1020.6 |
| 20260506100146 | 28 | 352 | 1.0 | 3.0 | 0.00 | 0.14 | 0.00 | 96 | 1020.6 |
| 20260506095411 | 28 | 2 | 1.0 | 4.0 | 0.00 | 0.15 | 0.00 | 96 | 1020.6 |
| 20260506094914 | 28 | 346 | 1.0 | 4.0 | 0.00 | 0.15 | 0.00 | 96 | 1020.6 |
| 20260506094411 | 28 | 344 | 1.0 | 4.0 | 0.00 | 0.15 | 0.00 | 96 | 1020.6 |
| 20260506093913 | 28 | 355 | 1.0 | 4.0 | 0.00 | 0.15 | 0.00 | 96 | 1020.6 |
| 20260506093412 | 28 | 17 | 2.0 | 4.0 | 0.00 | 0.15 | 0.00 | 96 | 1020.6 |
| 20260506092912 | 28 | 17 | 2.0 | 4.0 | 0.00 | 0.15 | 0.00 | 96 | 1020.6 |
| 20260506092411 | 28 | 13 | 2.0 | 5.0 | 0.00 | 0.15 | 0.00 | 96 | 1020.6 |
| 20260506091913 | 29 | 10 | 3.0 | 6.0 | 0.00 | 0.16 | 0.00 | 96 | 1020.6 |
| 20260506091411 | 29 | 18 | 3.0 | 6.0 | 0.00 | 0.16 | 0.00 | 96 | 1020.6 |
| 20260506091143 | 29 | 18 | 3.0 | 6.0 | 0.00 | 0.16 | 0.00 | 96 | 1020.6 |
| 20260506090640 | 29 | 333 | 2.0 | 5.0 | 0.00 | 0.16 | 0.00 | 96 | 1020.6 |
| 20260506090142 | 29 | 349 | 1.0 | 5.0 | 0.00 | 0.16 | 0.00 | 96 | 1020.6 |
| 20260506085410 | 29 | 338 | 1.0 | 3.0 | 0.00 | 0.16 | 0.00 | 96 | 1020.6 |